Location: Northcutt
(34.7304°N, 84.4305°W)
Time: 03:04:50
(UTC+00:00)

Vanguard 2 - Pass Details

Date: 04 October 2022
Orbit: 553 x 2933 km, 32.9° (Epoch: 05 December)

Event Time Altitude Azimuth Distance (km) Brightness Sun altitude
Rises 17:04:53 0° 229° (SW) 4,056 11.5 50.4°
Reaches altitude 10° 17:07:18 10° 224° (SW) 3,348 11.3 50.5°
Maximum altitude 17:15:52 52° 150° (SSE) 2,208 11.8 50.7°
Drops below altitude 10° 17:29:41 10° 80° (E) 5,266 11.8 50.7°
Sets 17:34:32 0° 77° (ENE) 6,523 12.2 50.7°
